Orbital Elements at Epoch 2459200.5 (2020-Dec-17.0) TDB
Reference: JPL 20 (heliocentric ecliptic J2000)
Element | Value | Uncertainty (1-sigma) | Units |
e | .1376882186194752 | 5.2298e-08 | |
a | 2.662839102838718 | 1.3435e-08 | au |
q | 2.296197530298574 | 1.4433e-07 | au |
i | 8.448711753159451 | 4.847e-06 | deg |
node | 328.2906269499868 | 2.9652e-05 | deg |
peri | 167.6996804517333 | 3.4439e-05 | deg |
M | 291.1549505688168 | 2.0091e-05 | deg |
tp | 2459504.019103569557 (2021-Oct-16.51910357) | 8.9862e-05 | TDB |
period | 1587.142113889576 4.35 | 1.2012e-05 3.289e-08 | d yr |
n | .2268227884885214 | 1.7166e-09 | deg/d |
Q | 3.029480675378863 | 1.5285e-08 | au |
|
| | Orbit Determination Parameters
Additional Information
|